GFSCGP_850_spd_000.txt.gz
Wind_Speed
6 8 7 12 8 7 10 7 7 14 7 3 9 8 10 7 5 6 6 8 8 19 18 16 11 5 4 0 1 8 7 10 6 5 7 8 7 6 7 6 11 14 15 18
5 6 8 6 7 6 6 5 6 6 5 5 8 10 11 6 11 14 11 12 19 18 17 14 11 8 9 9 11 9 4 9 6 7 5 5 7 7 8 6 10 12 17 23
13 10 5 4 5 8 3 6 9 8 7 8 10 6 14 11 11 13 18 21 19 16 15 14 13 13 12 12 11 9 8 10 10 8 3 2 4 5 11 19 30 25 28 35
8 4 3 1 5 8 3 6 5 8 7 7 13 3 13 14 12 14 16 16 14 12 13 14 14 12 11 11 10 8 7 5 3 1 12 16 17 15 22 32 30 28 19 18
5 4 5 4 6 6 6 5 6 8 9 10 10 6 13 16 14 13 13 11 10 11 12 11 11 11 10 8 7 6 4 3 8 14 13 12 10 19 21 17 16 16 11 15
7 3 7 6 4 2 6 9 9 8 9 3 11 2 6 2 12 12 10 8 7 8 7 7 8 8 8 6 5 4 5 6 14 11 9 19 20 17 13 13 12 13 18 24
8 6 5 8 10 5 8 8 4 2 2 3 5 2 10 11 12 13 9 11 8 5 6 4 7 6 3 5 7 9 11 13 12 17 17 11 11 11 11 13 15 20 25 18
7 6 5 7 7 7 5 6 3 3 4 2 4 3 8 14 13 12 10 5 4 5 3 4 3 3 4 6 9 13 13 14 15 15 12 12 11 11 13 16 21 20 17 20
5 7 6 7 6 8 7 5 3 1 2 1 5 17 14 11 8 11 5 1 2 2 4 1 6 3 4 9 12 13 17 15 15 12 11 11 11 11 18 22 17 17 16 15
4 3 5 3 3 4 5 1 2 3 2 3 8 5 7 4 6 5 7 8 8 2 4 7 12 13 14 15 16 15 13 13 13 14 13 16 21 19 16 16 17 15 19 24
7 4 3 5 8 8 0 2 2 3 1 2 3 2 4 7 5 5 7 8 8 8 7 7 14 17 18 21 18 18 18 12 15 17 20 24 16 15 15 16 17 19 24 30
4 3 2 8 5 3 3 5 3 1 1 2 1 6 7 8 13 7 9 8 11 12 14 17 17 17 21 23 19 13 17 19 24 24 14 17 17 17 16 18 22 24 20 18
5 2 2 7 5 3 3 3 1 6 2 3 2 3 5 19 14 15 11 11 14 12 12 13 15 19 22 22 23 28 22 17 22 21 16 16 19 17 16 18 19 17 20 21
4 1 2 2 5 7 7 8 8 8 3 5 6 14 14 4 6 6 10 13 14 16 14 15 18 20 21 24 21 19 22 25 27 26 16 14 21 17 16 16 18 19 21 22
3 3 6 8 9 9 10 11 11 12 10 8 10 13 9 10 10 19 17 16 14 12 16 18 20 22 21 20 21 23 24 27 28 25 22 27 23 19 13 15 16 19 21 21
6 2 3 3 4 9 12 14 14 15 14 9 12 13 7 18 15 16 14 15 15 16 17 19 21 19 19 22 24 27 29 31 22 21 27 26 25 21 14 14 15 17 21 20
3 2 1 2 9 9 2 4 5 4 6 9 5 8 15 10 12 16 11 11 15 16 19 20 18 19 21 23 26 29 32 33 33 30 27 23 23 20 14 14 15 17 21 24
5 2 2 2 5 3 3 12 12 9 7 7 7 8 8 12 16 17 8 11 15 15 16 17 19 22 21 27 27 30 31 34 36 35 31 25 25 16 12 13 17 17 22 24
5 2 3 1 3 9 11 4 6 5 10 10 7 8 12 17 14 6 12 13 13 15 17 20 22 23 27 26 28 32 34 34 35 37 26 26 16 14 16 11 18 18 25 24
5 5 1 2 2 3 2 7 6 9 8 8 10 11 11 16 6 8 20 19 18 19 20 23 24 26 26 27 31 31 32 33 35 31 33 20 12 15 14 14 15 20 21 21
2 1 3 4 4 6 9 5 4 3 2 5 5 10 10 7 7 14 17 15 18 20 22 26 26 26 24 28 29 29 31 33 27 24 19 16 15 15 14 14 18 20 21 24
7 7 4 3 3 6 2 2 1 5 10 2 3 5 8 11 11 15 14 17 19 22 25 26 28 26 28 29 28 27 28 30 25 27 22 21 18 15 15 16 17 21 22 18
4 6 4 9 5 10 3 7 10 10 7 3 8 7 9 10 13 14 16 18 21 24 26 28 27 29 31 27 26 27 27 26 24 23 23 19 16 15 15 19 22 19 16 19
3 9 3 2 7 12 10 3 6 6 2 5 6 8 10 11 12 15 18 22 24 25 28 26 30 31 27 28 29 26 25 24 23 21 18 18 16 17 19 14 17 17 18 24
6 6 6 9 15 15 3 5 7 1 7 9 7 9 8 11 14 18 22 24 26 27 25 30 29 29 29 31 29 25 27 29 18 16 14 14 15 13 16 15 16 16 19 23
10 10 7 8 8 3 3 4 4 7 6 6 5 6 9 12 17 20 22 25 26 28 30 29 29 31 31 29 28 29 22 19 20 18 15 15 14 13 16 12 15 17 20 20

GFSCGP_850_spd_003.txt.gz
Wind_Speed
13 6 3 3 3 4 5 5 12 5 5 2 4 6 8 23 26 31 29 37 37 32 22 21 21 14 9 10 16 17 11 15 20 17 14 12 12 9 9 11 17 23 22 28
4 5 3 5 2 4 4 6 6 3 4 3 1 5 9 20 17 26 32 34 32 28 26 22 15 18 18 19 18 18 18 14 14 11 10 10 11 11 17 19 14 15 22 23
7 2 4 3 8 9 7 5 5 3 6 6 2 3 9 10 25 33 34 30 25 23 21 16 13 14 16 13 9 7 7 8 8 4 6 9 11 10 11 14 20 27 21 16
7 1 3 5 7 6 4 6 5 6 3 3 5 2 6 14 15 21 30 32 31 28 21 16 11 9 9 11 6 4 5 6 5 7 12 11 12 15 17 19 18 11 15 14
2 7 8 8 4 5 3 0 3 3 4 3 7 5 1 14 12 10 19 20 20 18 16 12 8 7 6 6 8 9 10 14 16 18 17 18 14 16 12 11 12 13 12 12
4 10 4 5 5 3 5 4 5 3 2 2 6 5 2 5 8 5 19 21 15 10 5 3 6 4 6 11 10 10 10 10 15 17 21 19 19 13 12 16 16 16 18 23
5 5 3 5 4 1 4 5 3 4 4 3 5 6 2 6 6 11 16 20 14 13 13 14 10 3 4 7 9 8 12 16 17 15 10 14 14 14 14 13 15 21 26 25
5 4 6 8 5 2 5 4 4 1 1 4 8 4 2 11 22 18 14 10 12 11 7 4 3 7 10 11 11 11 13 17 14 9 14 15 13 11 8 14 26 25 16 12
3 3 3 5 4 3 4 5 2 5 4 3 2 4 4 9 9 16 9 4 18 17 13 10 10 11 7 5 9 9 10 7 9 9 12 12 9 13 28 25 18 13 10 15
5 4 3 2 2 5 5 2 6 4 2 2 1 2 4 3 4 7 9 16 13 15 10 6 9 4 6 10 11 11 11 12 10 12 13 15 23 33 21 13 14 11 16 18
5 3 2 2 5 4 5 3 4 3 4 4 1 4 4 7 7 7 15 22 23 20 14 9 10 13 13 14 16 18 20 20 21 25 27 32 31 17 13 18 19 20 26 29
3 4 3 3 3 2 2 3 4 4 3 1 4 5 3 8 17 17 20 17 16 14 13 13 12 12 16 20 26 28 19 21 26 29 31 29 25 19 23 30 26 24 25 22
3 2 3 5 4 4 2 3 5 6 3 3 4 5 3 11 11 8 18 17 14 12 13 11 14 19 20 23 26 19 22 24 28 30 31 29 26 23 29 26 21 18 17 21
3 3 5 5 3 1 3 4 3 6 4 4 6 6 5 8 7 15 16 15 15 14 11 16 18 17 20 17 16 17 20 26 28 35 34 35 36 26 21 16 15 12 18 20
3 3 5 4 6 5 4 5 6 4 6 6 9 8 13 6 10 12 13 14 15 13 15 15 18 18 14 15 18 22 26 28 31 33 32 35 34 27 21 26 15 14 20 14
5 1 2 3 7 9 5 8 8 7 7 6 3 7 12 15 17 14 16 16 16 15 17 18 14 15 18 19 23 22 22 28 32 35 36 37 34 30 30 22 18 9 9 13
4 4 3 2 4 5 4 4 3 2 2 2 1 5 13 12 16 16 15 13 12 15 16 14 16 16 16 20 16 20 26 32 34 32 36 28 28 33 29 15 16 15 14 13
5 4 3 2 3 2 5 4 3 6 6 7 13 11 15 15 16 14 10 10 10 13 14 14 13 16 17 17 20 25 31 34 33 34 32 33 31 34 24 10 11 17 15 17
6 4 3 2 1 5 7 2 4 4 4 9 10 11 11 8 5 12 9 12 7 9 12 13 16 18 18 22 26 30 32 30 30 28 33 36 25 21 16 13 17 14 14 17
5 5 4 2 4 6 7 4 9 6 2 8 11 8 6 4 2 4 11 10 7 12 13 15 20 19 22 22 27 29 27 28 28 30 34 33 27 22 23 17 13 11 12 18
3 3 4 4 3 7 8 2 7 5 6 8 5 2 2 1 3 10 11 5 13 14 14 18 18 19 18 24 27 23 25 26 27 31 32 26 21 19 18 17 11 15 19 16
7 6 4 2 2 7 10 3 7 6 7 8 7 3 3 5 8 8 6 13 15 15 17 17 19 18 24 22 19 24 26 25 28 31 29 23 20 15 14 14 17 19 16 17
2 7 6 8 6 10 16 10 11 9 10 12 7 4 3 7 8 5 13 14 13 16 18 15 18 25 21 21 25 27 25 28 32 35 28 20 14 14 16 16 13 15 17 17
3 11 3 4 5 7 15 13 11 8 6 5 4 4 6 7 7 10 8 11 12 14 17 23 23 22 24 28 28 25 28 31 36 27 19 15 14 15 13 16 19 17 15 20
6 4 1 3 4 4 7 10 13 10 5 8 10 6 6 3 5 7 8 13 16 21 26 27 27 30 34 32 30 28 32 32 28 22 20 14 15 14 12 14 13 15 18 21
8 5 3 6 3 5 8 13 9 6 7 7 7 7 1 3 5 9 13 17 24 27 28 29 31 32 30 30 35 38 24 22 23 20 15 15 15 12 11 12 15 17 19 20

GFSCGP_850_spd_006.txt.gz
Wind_Speed
7 6 3 3 4 4 3 3 7 3 5 5 7 7 6 17 31 26 31 38 37 35 27 21 17 15 17 20 17 16 15 17 20 18 17 14 11 3 4 7 10 11 14 19
6 2 3 4 5 5 4 7 5 5 7 5 9 10 7 13 18 29 33 35 34 33 28 25 23 18 18 18 16 10 11 19 18 15 6 1 2 5 9 11 11 17 21 28
6 4 2 5 7 7 5 7 3 2 2 8 15 7 9 9 20 25 28 31 30 28 27 24 21 19 18 16 11 8 6 5 4 1 3 6 8 11 12 17 20 21 22 19
5 7 5 5 4 1 2 2 4 3 3 6 1 4 3 6 12 18 25 30 29 27 23 19 16 13 11 12 9 8 7 4 3 7 13 16 17 18 20 21 18 16 18 16
4 4 6 5 0 2 3 1 2 1 3 3 2 7 5 5 8 9 16 26 23 18 15 11 8 8 10 8 7 10 11 12 16 17 20 22 22 22 21 20 18 15 12 13
4 3 3 1 3 1 1 1 6 4 3 3 4 5 6 4 6 5 13 24 19 13 8 2 0 7 7 9 11 12 14 13 15 17 20 18 18 19 17 13 10 12 15 20
5 4 4 5 4 5 8 5 3 4 4 4 4 7 1 1 5 14 17 19 17 13 9 8 5 2 7 10 10 11 12 14 15 13 13 16 17 15 11 10 13 21 21 25
4 4 4 6 2 1 3 5 5 4 2 3 5 3 2 6 24 23 17 16 16 16 13 12 8 3 2 4 7 5 8 12 12 15 13 12 9 9 12 26 30 37 25 19
4 0 2 1 2 1 3 4 4 6 3 3 1 4 3 5 6 14 7 13 15 16 14 17 11 8 4 5 7 8 9 11 12 10 10 16 23 28 28 30 27 19 19 19
2 4 2 3 5 6 5 2 4 4 2 1 3 3 4 5 5 7 10 13 15 18 17 14 12 9 9 8 9 12 13 13 13 16 20 26 30 33 37 35 29 23 23 19
2 4 4 4 3 1 5 3 5 4 3 4 2 5 5 6 8 10 17 25 22 18 16 15 12 9 9 11 15 11 11 13 17 21 23 26 29 32 32 26 21 24 22 24
2 5 3 1 3 1 1 3 4 4 2 2 4 4 3 6 18 24 21 21 21 19 15 11 8 9 11 12 11 11 12 14 18 22 24 24 26 29 32 29 29 34 27 26
2 2 3 6 5 6 4 2 5 6 3 3 5 5 4 5 13 16 23 22 19 14 9 7 9 12 11 8 9 11 15 19 23 29 30 34 32 28 30 30 28 18 13 14
1 3 4 6 4 3 0 2 3 5 3 4 6 6 5 6 10 17 21 18 13 8 7 10 11 7 4 8 12 15 19 23 28 28 32 36 37 32 25 24 18 19 31 17
3 4 2 2 3 1 1 2 1 4 4 5 7 7 6 6 8 16 18 13 6 5 7 9 5 2 6 9 13 17 20 22 26 30 34 32 35 31 29 27 29 25 16 10
5 2 1 0 5 6 3 5 5 4 4 4 9 5 6 12 19 16 12 9 6 5 5 3 5 1 5 11 14 16 21 25 29 32 32 31 32 33 31 31 27 16 12 8
4 4 3 3 5 6 5 4 3 1 4 3 6 6 9 6 13 13 10 6 2 2 2 4 3 4 11 14 17 21 25 27 30 29 31 34 35 36 31 25 16 18 12 18
5 4 3 2 4 1 5 5 4 9 3 10 11 7 9 13 12 10 5 0 2 0 3 6 5 11 15 16 19 21 25 27 30 31 33 32 33 33 26 20 23 19 13 12
5 4 3 3 3 5 6 4 6 5 3 4 9 10 9 16 13 8 2 1 1 3 8 10 11 14 14 16 18 24 28 28 29 31 32 30 30 29 21 17 17 13 17 10
6 6 4 3 4 6 6 2 9 8 4 16 14 14 11 13 3 5 5 3 4 6 8 9 13 12 15 18 22 24 19 23 29 31 29 30 31 23 20 16 17 13 8 15
3 3 4 3 2 8 7 11 4 5 7 23 19 15 14 6 8 3 4 2 4 8 7 8 10 10 15 21 18 17 23 28 28 25 28 32 27 19 14 11 8 11 16 14
7 6 4 3 2 7 13 6 7 6 11 21 16 13 12 7 6 5 4 2 3 2 6 9 10 16 19 16 20 26 28 25 25 28 32 26 18 14 12 15 17 14 9 8
2 7 6 9 7 6 18 11 15 12 14 17 15 10 9 8 6 6 3 3 4 6 9 14 19 22 21 22 27 24 26 26 28 32 25 21 17 14 13 11 12 11 9 11
4 8 3 3 6 13 13 14 13 15 12 13 13 10 9 7 6 6 5 3 5 11 16 21 24 26 27 27 24 23 27 31 33 25 22 20 14 15 14 11 12 10 11 15
6 5 4 4 4 1 7 16 16 13 11 12 7 9 9 9 8 6 3 5 10 16 21 23 24 26 26 26 28 30 32 32 25 18 19 16 13 13 13 10 10 13 15 17
7 7 4 7 9 11 11 16 18 16 14 12 14 12 12 12 9 2 5 12 18 21 23 24 25 26 27 29 31 32 26 24 20 18 16 13 13 12 10 12 14 16 17 13

GFSCGP_850_spd_009.txt.gz
Wind_Speed
5 6 2 4 1 4 2 3 5 4 1 8 5 8 10 11 26 23 23 29 27 22 17 12 12 13 14 20 21 18 12 7 9 8 12 12 6 1 4 7 11 14 14 17
7 2 1 6 5 3 5 4 2 4 8 11 12 12 9 13 11 19 25 31 33 31 27 23 17 12 10 12 11 6 6 7 8 8 5 2 6 7 12 14 13 17 23 23
5 2 3 5 6 5 4 2 3 6 8 6 12 9 8 8 14 20 23 28 29 27 23 18 17 15 13 9 10 8 6 0 5 7 8 9 9 11 14 18 20 22 21 21
6 6 5 5 5 3 3 2 3 9 5 4 4 3 2 3 4 7 17 25 26 24 24 21 19 18 15 12 10 8 5 5 6 7 10 13 14 15 17 18 20 17 18 16
4 2 5 5 1 2 3 2 2 2 4 4 4 6 3 6 3 4 11 22 24 19 18 19 17 15 12 10 8 8 7 7 10 13 14 16 16 17 18 15 13 12 13 17
3 1 3 1 1 0 2 5 6 4 3 3 2 5 6 8 7 6 9 19 23 20 21 20 16 11 10 6 4 3 2 5 9 12 14 16 16 16 14 15 13 14 23 25
5 4 5 3 2 2 5 5 3 3 4 4 3 2 5 12 10 11 18 22 20 19 16 14 12 9 6 3 2 3 4 7 11 13 17 17 15 14 16 19 24 31 29 29
3 5 4 5 1 2 3 4 5 5 3 2 4 2 4 5 19 25 24 21 16 14 15 14 11 6 5 5 4 2 4 8 9 10 11 13 15 19 22 21 25 26 29 24
4 1 3 1 2 2 1 3 3 6 3 3 3 3 5 5 8 17 17 18 16 16 15 14 10 8 6 4 3 5 8 9 8 9 12 16 19 22 25 27 29 31 29 24
5 4 2 4 3 4 4 4 3 4 3 1 2 3 4 8 9 4 7 19 19 19 20 17 14 10 5 1 6 8 7 7 10 13 16 18 18 19 24 26 29 28 24 22
2 3 4 2 3 1 4 2 6 5 3 4 2 5 5 9 7 7 14 24 25 24 20 17 11 5 1 5 6 3 4 8 12 15 21 24 25 30 32 30 29 26 23 19
1 5 3 1 5 3 1 2 4 4 3 1 3 5 3 8 16 22 20 26 23 21 17 11 7 2 3 2 1 4 8 13 17 21 26 26 31 33 31 27 22 22 20 26
2 2 3 6 6 5 2 3 5 6 3 4 5 5 2 9 9 11 26 25 21 16 12 7 3 3 3 3 3 8 12 17 20 23 26 31 35 31 31 29 22 21 23 24
3 3 5 6 4 3 3 2 3 4 3 3 5 4 4 5 8 15 20 19 16 11 6 4 5 4 6 5 7 10 14 18 21 26 31 34 30 30 30 29 23 22 25 27
4 3 1 3 4 2 1 3 5 6 4 5 6 7 7 9 10 20 20 15 11 8 5 4 4 7 6 7 9 13 16 20 25 28 30 28 30 31 29 28 24 20 18 18
4 3 1 1 6 6 3 5 6 5 4 6 3 4 4 14 16 19 18 15 11 7 5 4 6 8 11 11 13 13 17 22 27 28 27 27 29 30 28 26 21 17 17 20
4 5 3 3 4 5 6 7 6 4 3 6 6 7 12 6 16 21 17 13 10 7 6 7 9 11 12 13 13 16 20 22 25 24 25 29 28 27 29 26 20 18 21 18
5 4 3 2 3 2 6 4 6 4 1 3 3 9 15 18 19 16 14 12 10 9 8 9 11 11 12 13 14 15 21 23 21 21 27 27 28 29 29 23 17 13 14 13
4 5 3 4 3 5 6 5 6 6 7 5 8 8 13 12 10 13 16 13 9 10 9 10 9 12 10 11 13 20 21 17 19 26 28 25 27 32 25 22 19 17 16 13
5 6 4 2 4 6 6 3 6 5 5 18 17 17 16 17 3 6 20 14 10 10 8 9 10 8 9 12 17 17 15 21 28 26 24 25 32 26 21 17 14 9 8 11
2 3 4 3 3 8 7 5 4 5 7 23 27 27 24 10 12 4 14 13 10 10 9 8 7 7 12 17 18 19 24 26 23 23 23 26 27 21 17 13 16 18 18 17
7 6 4 3 1 8 11 5 7 6 7 20 28 28 31 25 11 11 11 13 10 10 8 6 8 14 19 20 21 25 23 21 23 23 27 25 23 20 16 15 13 11 10 9
3 7 5 9 6 4 18 8 21 9 9 18 24 25 21 17 13 12 14 13 12 8 6 9 15 19 19 21 22 23 23 25 28 29 28 21 19 18 14 15 13 10 7 8
4 7 3 2 5 15 17 22 21 15 16 14 19 20 19 17 16 17 16 13 8 5 9 15 18 20 22 22 22 23 26 27 26 26 19 17 17 14 14 14 12 8 9 12
4 8 4 5 10 12 15 19 22 23 19 15 17 17 18 17 17 18 15 8 5 9 13 16 19 21 22 22 24 26 27 27 24 22 17 17 19 10 13 11 8 12 14 16
9 7 4 7 17 12 14 14 17 22 24 19 20 18 17 17 19 14 8 3 8 12 14 17 19 22 22 24 27 28 25 23 21 22 19 18 18 8 9 10 12 15 18 12

GFSCGP_850_spd_012.txt.gz
Wind_Speed
5 8 3 3 4 4 4 3 3 2 3 8 4 6 8 14 15 14 13 13 11 10 8 9 10 11 12 14 18 18 12 3 4 5 7 5 3 8 6 5 13 17 15 18
7 4 2 2 4 5 5 5 3 4 5 8 8 9 7 13 7 11 18 19 19 19 15 12 10 10 7 9 8 6 6 4 3 3 1 7 8 9 10 14 16 17 19 22
6 2 2 2 5 6 4 5 2 6 7 6 6 6 6 6 11 14 21 24 23 22 22 22 19 18 15 15 17 16 14 11 6 6 7 8 9 10 13 15 17 18 20 20
5 4 4 5 6 3 2 3 3 8 4 4 3 2 1 1 2 3 13 19 19 21 22 20 18 17 16 16 15 12 11 8 5 4 6 8 10 12 15 17 19 20 19 19
2 2 5 6 1 3 2 5 5 3 5 5 3 5 3 4 4 6 10 15 20 22 21 23 16 15 16 14 11 8 6 2 3 6 8 10 13 14 15 17 19 20 20 28
3 3 4 0 3 2 3 5 7 5 3 2 3 5 4 7 8 5 10 17 21 20 19 21 19 13 11 10 8 4 2 2 5 7 9 11 12 11 12 14 17 19 22 24
6 4 5 2 3 3 6 6 3 4 3 4 2 3 6 11 7 12 18 21 19 18 20 20 18 14 11 7 5 3 3 5 4 6 8 9 10 12 13 16 17 22 24 26
4 5 3 4 2 3 2 5 5 5 3 3 3 4 4 6 19 28 25 20 18 19 20 17 14 13 11 9 8 5 1 4 8 10 10 11 13 14 17 20 23 26 27 27
4 1 3 1 1 3 2 2 3 6 2 2 3 4 4 4 6 17 22 18 19 19 19 18 16 14 13 10 5 1 5 9 7 10 10 15 18 18 20 25 30 29 29 26
5 3 2 3 2 6 2 5 3 3 2 2 3 4 4 5 8 8 12 20 20 21 22 21 18 14 10 5 2 6 12 7 10 13 16 21 22 24 27 31 31 29 26 20
3 4 4 1 3 1 2 2 6 5 3 4 1 5 5 10 11 10 14 23 26 27 25 21 16 10 6 1 7 13 7 7 11 16 18 21 23 28 31 29 31 28 20 18
1 5 2 2 2 3 2 3 4 4 3 1 3 5 3 8 13 16 19 24 25 26 22 16 11 7 4 4 4 5 4 11 14 17 19 21 25 26 29 30 29 25 19 18
4 2 3 6 6 4 2 3 4 6 3 4 4 5 3 7 10 13 22 24 23 22 18 13 9 7 7 4 3 5 11 12 15 16 18 22 24 27 29 30 27 24 18 17
4 3 5 6 4 2 3 4 4 5 3 3 6 4 5 6 7 13 20 23 21 18 15 11 10 9 8 4 11 14 10 13 15 17 19 21 25 28 30 29 27 24 20 20
4 4 1 2 3 2 2 4 6 6 5 5 5 7 6 11 11 21 25 23 20 17 13 10 8 8 8 17 12 10 14 14 16 18 21 22 26 29 29 28 28 24 18 16
3 3 0 1 4 5 3 6 6 4 4 7 4 8 6 6 17 20 27 24 20 16 11 10 9 7 15 13 12 14 14 15 18 22 22 23 28 27 27 29 27 22 16 18
3 5 3 4 3 5 6 9 9 5 5 6 6 8 7 5 16 26 27 23 20 15 11 11 11 10 11 14 14 14 15 18 22 24 21 25 27 26 29 29 24 21 18 15
5 4 3 2 3 2 6 2 3 5 4 7 3 5 11 10 14 22 24 23 19 14 11 11 9 10 12 13 14 15 17 21 23 21 23 27 24 26 32 28 23 21 20 18
5 4 3 4 3 6 6 5 7 8 8 9 7 4 8 8 12 16 22 20 16 12 10 9 9 12 13 13 13 16 20 22 20 23 26 24 22 27 30 25 20 17 15 13
5 5 4 3 3 6 7 3 4 4 5 12 16 13 15 14 3 8 21 23 18 13 12 11 11 12 11 11 14 19 22 22 24 22 23 23 24 28 27 22 16 16 19 18
3 3 4 3 3 8 8 3 5 5 7 11 21 24 24 8 16 7 6 15 17 13 13 11 12 10 9 13 18 20 22 22 22 22 25 26 27 26 23 21 17 17 16 14
7 6 4 3 2 7 8 4 7 6 6 14 23 24 30 28 19 9 7 16 16 14 12 11 8 8 12 16 19 21 21 23 25 26 27 28 26 20 20 18 16 15 14 12
2 6 4 9 6 5 14 8 14 5 7 13 21 21 26 28 22 14 15 17 17 13 11 6 8 12 15 18 20 22 22 25 26 26 25 25 20 17 16 14 15 14 12 10
4 6 3 2 4 13 18 20 28 21 20 22 18 21 23 26 22 16 16 17 15 11 4 10 12 15 17 18 19 21 24 26 27 24 23 20 17 16 17 13 13 10 10 13
4 7 4 5 12 18 22 22 22 25 26 24 21 19 21 21 18 18 19 17 12 4 10 10 13 16 18 20 21 23 25 27 24 23 21 17 17 17 18 11 9 10 13 15
10 7 4 6 21 13 18 21 18 16 18 21 21 18 19 18 17 17 13 10 3 9 8 12 14 17 19 21 23 25 25 22 22 22 19 23 17 13 14 10 9 12 14 15

GFSCGP_850_spd_015.txt.gz
Wind_Speed
3 3 3 3 1 2 5 3 4 3 2 7 6 5 8 6 7 6 8 9 10 10 12 12 12 11 9 8 9 11 12 5 2 5 3 5 2 4 3 4 9 12 13 15
4 3 2 4 5 5 4 6 4 4 3 6 6 9 6 7 3 3 8 10 12 13 12 10 9 9 8 7 6 7 9 10 11 9 6 5 3 1 5 8 12 14 15 16
4 2 2 4 3 6 2 6 4 5 7 7 6 3 3 5 5 5 7 11 15 17 20 21 21 18 18 22 20 18 16 14 11 9 5 1 2 5 8 13 15 16 17 17
5 3 4 3 3 2 4 2 8 12 2 3 2 3 1 2 3 5 8 12 17 24 26 24 24 25 25 23 21 19 18 15 10 6 2 3 5 8 11 13 14 14 14 17
1 1 3 5 1 1 3 6 8 3 4 4 1 2 2 6 7 9 11 10 15 21 23 24 23 21 19 18 18 16 12 9 5 3 4 6 7 7 8 8 10 13 16 21
3 2 3 2 2 4 9 5 6 3 2 1 1 3 5 9 14 14 13 12 16 21 23 22 21 20 20 16 15 12 10 8 5 3 4 5 7 8 9 11 14 17 21 25
5 3 2 2 4 2 3 4 1 1 0 3 1 3 5 14 11 19 21 20 20 22 22 21 21 19 17 16 13 11 9 5 1 4 7 9 11 14 15 17 20 24 28 29
3 1 3 4 2 3 2 3 4 5 3 1 1 5 2 2 14 22 24 20 22 22 22 18 16 14 15 15 12 10 7 3 3 7 10 11 12 14 14 19 24 27 28 28
3 1 2 3 1 1 3 2 2 6 2 0 2 3 5 1 8 15 19 21 22 23 23 19 15 15 16 15 11 6 4 5 5 8 10 10 15 17 20 25 27 29 28 27
5 3 1 1 2 7 1 6 3 2 3 3 2 5 6 5 12 13 17 22 22 24 22 19 19 18 15 11 9 4 4 7 9 11 11 15 18 21 26 28 29 29 28 25
3 2 2 1 1 4 3 2 5 4 1 2 2 4 4 9 14 16 23 23 25 25 24 24 21 17 13 11 5 4 7 10 15 11 12 16 18 23 26 27 28 26 24 21
1 4 2 1 0 2 1 3 4 3 4 1 0 5 1 6 10 13 17 21 23 24 24 24 19 15 13 10 3 4 7 15 8 9 13 16 19 21 24 28 26 25 23 20
5 1 3 3 2 1 2 2 4 5 2 5 3 3 1 3 6 14 17 18 22 25 26 22 18 16 12 7 2 6 14 10 7 11 14 18 19 21 25 27 26 25 25 22
3 2 4 7 3 1 4 4 5 3 3 4 6 4 4 5 7 11 15 18 21 27 26 22 18 14 11 7 3 17 6 7 11 13 17 19 19 22 26 27 26 27 24 21
2 4 2 1 1 2 2 4 8 7 4 6 3 8 6 9 13 16 15 19 24 27 25 21 17 14 11 8 15 7 8 12 12 16 19 20 20 23 27 26 28 27 23 20
2 4 1 4 1 3 3 5 7 8 4 10 6 14 10 4 8 15 20 25 26 27 24 20 16 13 13 9 9 10 11 12 16 19 22 21 21 26 27 26 29 27 23 20
2 5 3 3 2 2 5 9 11 6 6 7 9 8 6 6 12 20 23 27 28 27 24 20 17 15 9 7 9 11 13 15 18 22 23 22 24 28 25 27 29 26 22 20
5 4 2 2 1 2 4 2 2 10 6 13 4 4 6 4 9 14 23 29 30 27 22 18 15 12 10 10 11 13 15 16 21 23 21 23 27 25 25 27 27 23 17 16
4 4 3 2 3 5 5 3 5 6 6 12 13 6 4 5 3 8 18 26 26 24 19 14 13 12 11 11 13 13 14 18 21 23 25 24 24 24 25 28 24 20 15 17
4 5 3 3 2 5 5 2 4 3 4 3 12 8 10 11 3 5 15 24 24 20 17 15 13 12 11 11 10 11 16 19 22 22 22 22 23 25 28 27 21 18 16 16
2 3 3 2 4 7 6 1 4 3 4 3 13 15 18 7 11 6 8 20 24 21 18 16 12 12 8 7 10 14 17 19 19 20 22 23 24 26 25 20 17 16 15 15
5 5 3 3 1 6 6 4 5 4 4 6 14 16 24 19 15 12 10 15 23 21 17 15 15 9 7 10 13 15 16 17 19 21 23 24 24 23 17 15 15 14 14 13
3 5 3 8 5 4 12 9 11 9 8 8 13 15 21 21 21 17 14 17 20 20 17 13 8 6 10 11 13 15 16 18 20 23 24 23 23 19 15 14 14 14 13 11
3 5 2 1 3 10 16 18 23 26 25 26 23 20 19 25 23 19 17 19 19 17 13 7 9 8 8 10 13 16 17 20 23 24 23 23 20 18 16 15 15 13 10 9
3 7 4 4 12 15 13 16 13 13 17 21 21 19 20 19 23 23 22 23 23 19 14 10 8 8 9 11 14 15 19 21 22 21 21 19 19 20 17 14 12 11 10 12
10 6 4 5 18 9 17 18 17 18 17 15 16 18 17 15 17 22 22 25 20 13 8 8 8 8 10 11 13 17 20 21 18 18 19 17 19 18 15 13 12 13 13 13